Location: Pasadena, ca
(34.1243°N, 118.1037°W)
Time: 01:35:15
(UTC-08:00)

OTV 5 (USA 277) - Pass Details

Date: 19 November 2017
Orbit: 404 x 417 km, 43.0° (Epoch: 07 September)

Event Time Altitude Azimuth Distance (km) Brightness Sun altitude
Exits shadow 05:54:13 10° 297° (WNW) 1,465 ? -7.6°
Reaches altitude 10° 05:54:15 10° 297° (WNW) 1,454 ? -7.6°
Maximum altitude 05:57:31 76° 210° (SSW) 416 ? -7.0°
Drops below altitude 10° 06:00:47 10° 125° (SE) 1,448 ? -6.3°
Sets 06:02:52 0° 124° (SE) 2,304 ? -5.9°
